Regional Weather Roundup
Issued by NWS

Home | Current Version | Previous Version | Text Only | Print | Product List | Glossary On
Versions: 1 2 3 4 5 6 7 8 9 10 11 12 13 14 15 16 17 18 19 20 21 22 23 24 25 26 27 28 29 30 31 32 33 34 35 36 37 38 39 40 41 42 43 44 45 46 47 48 49 50
000
ASUS43 KDTX 261001
RWRMI
MICHIGAN HOURLY REGIONAL WEATHER ROUNDUP
NATIONAL WEATHER SERVICE DETROIT/PONTIAC MI
600 AM EDT FRI AUG 26 2016

NOTE: "FAIR" INDICATES FEW OR NO CLOUDS BELOW 12,000 FEET WITH NO
SIGNIFICANT WEATHER AND/OR OBSTRUCTION TO VISIBILITY.

MIZ047>049-052>055-059>063-066>070-074>076-081>083-261100-
SOUTHEAST LOWER MICHIGAN

CITY           SKY/WX    TMP DP  RH WIND       PRES   REMARKS
ADRIAN         FAIR      60  59  96 CALM      30.12S
ALMA           FAIR      60  60 100 CALM      30.09S FOG
ANN ARBOR      FAIR      57  57 100 CALM      30.10S FOG
BAD AXE        FAIR      60  59  96 SW3       30.07S
CARO           FAIR      58  57  98 CALM      30.07S
DETROIT CITY   FAIR      66  61  84 W3        30.09S
DETROIT        FAIR      64  61  90 NW3       30.10S
FLINT          FAIR      63  59  87 SW3       30.09S
GROSSE ILE     FAIR      64  61  88 NW5       30.09R
HILLSDALE      FAIR      58  56  95 CALM      30.13R FOG
HOWELL         FAIR      61  60  96 W3        30.10S

CITY           SKY/WX    TMP DP  RH WIND       PRES   REMARKS
JACKSON        FAIR      61  61 100 SW3       30.11S
LAMBERTVILLE   FAIR      64  62  93 CALM      30.11S
LANSING        FAIR      62  59  90 CALM      30.10S
LAPEER         FAIR      61  59  95 CALM      30.09S
MASON          FAIR      60  58  94 CALM      30.11S
MONROE         FAIR      60  60  99 N6        30.10R
MT. CLEMENS    FAIR      65  60  84 W6        30.07R
PONTIAC        FAIR      62  59  90 CALM      30.09S
PORT HURON     FAIR      61  61 100 CALM      30.09R
TRI CITIES     FAIR      61  60  97 W7        30.09R
MIDLAND        FAIR      58  58  99 CALM      30.07S
TROY           FAIR      66  60  81 SW6       30.11S
SAGINAW HB     FAIR      61  59  94 SW5       30.07S
$$
MIZ043>046-050>051-056>058-064>065-071>073-077>080-261100-
SOUTHWEST LOWER MICHIGAN

CITY           SKY/WX    TMP DP  RH WIND       PRES   REMARKS
BATTLE CREEK   FAIR      61  61 100 S5        30.12S
BENTON HARBOR  FAIR      63  60  90 CALM      30.10S
BIG RAPIDS     FAIR      58  57  98 CALM      30.09S
COLDWATER      FAIR      59  59 100 CALM      30.12R FOG
FREMONT        FOG       58  58  98 CALM      30.09R VSB 1/2
HOLLAND        FAIR      63  62  97 CALM      30.10S
GRAND RAPIDS   MOCLDY    64  61  90 W3        30.10S
IONIA          FAIR      60  58  96 CALM      30.09S FOG
KALAMAZOO      FAIR      64  60  87 CALM      30.12R
LUDINGTON      FAIR      64  59  85 NW5       30.08S
MARSHALL       FAIR      61  59  94 CALM      30.11S
MOUNT PLEASANT FAIR      62  60  94 CALM      30.07S
MUSKEGON       FAIR      68  62  81 CALM      30.10R
SOUTH HAVEN    FAIR      64  63  99 CALM      30.10S
$$
MIZ016>042-261100-
NORTHERN LOWER MICHIGAN

CITY           SKY/WX    TMP DP  RH WIND       PRES   REMARKS
ALPENA         FAIR      62  58  86 W5        30.04R
BEAVER ISLAND  FAIR      63  57  81 W6        30.05R
BELLAIRE       FAIR      56  55  96 CALM      30.07R
CADILLAC       FOG       55  54  96 CALM      30.09R VSB 3/4
CHARLEVOIX     FAIR      65  56  72 W8        30.08R
FRANKFORT      FAIR      60  57  91 CALM      30.08R
GAYLORD        FAIR      59  54  83 CALM      30.08R
GRAYLING       FAIR      59  58  97 SW5       30.09R
HARBOR SPRINGS FAIR      58  56  92 CALM      30.05R
HOUGHTON LAKE  FAIR      63  60  90 W7        30.09R
MANISTEE       FAIR      65  59  81 NW6       30.07S
OSCODA         FAIR      58  57  95 SW7       30.04R
PELLSTON       FAIR      54  52  93 CALM      30.05R
ROGERS CITY    FAIR      62  56  81 W5        30.05R
TRAVERSE CITY  FAIR      62  59  90 CALM      30.06R
$$
MIZ007>008-015-261100-
EASTERN UPPER MICHIGAN

CITY           SKY/WX    TMP DP  RH WIND       PRES   REMARKS
KINROSS        FAIR      58  55  90 SW6       30.02R
MACKINAC ISLAN MOCLDY    62  57  81 W6        30.03R
NEWBERRY       FAIR      57  56  95 W6        30.03R
S. S. MARIE    MOCLDY    63  59  87 W6        30.01R
MUNISING         N/A     56  54  93 VRB3      30.03
$$
MIZ004>006-011>014-085-261100-
CENTRAL UPPER MICHIGAN

CITY           SKY/WX    TMP DP  RH WIND       PRES   REMARKS
MANISTIQUE     FAIR      56  54  92 CALM      30.04R
ESCANABA       FAIR      55  53  93 W5        30.06R
MENOMINEE      FAIR     N/A N/A N/A VRB3      30.08S
SAWYER-GWINN   FAIR      54  52  92 W3        30.04S
$$
MIZ001>003-009>011-084-261100-
WESTERN UPPER MICHIGAN

CITY           SKY/WX    TMP DP  RH WIND       PRES   REMARKS
IRON MOUNTAIN  FAIR      54  50  86 CALM      30.06S
HOUGHTON       CLOUDY    60  55  83 NW9       30.03R
COPPER HARBOR    N/A     63  59  87 N10       30.00R
IRONWOOD       CLOUDY    57  54  89 W9        30.09S
$$

ABBREVIATIONS USED IN REMARKS
   TC - TEMPERATURE IN CELSIUS
  WCI - WIND CHILL INDEX
   HX - HEAT INDEX
  VSB - VISIBILITY





USA.gov is the U.S. government's official web portal to all federal, state and local government web resources and services.